,,,PA_Meas_PMT16A,,PR_Meas_QMR101_102,,RH_Meas_QMH101,,SR_Meas_QMS101,,TA_Meas_QMH101,,GenWind,,GenWind,
date,time,status,PA,status,PR,status,RH,status,SR,status,TA,status,DirAvg,status,SpdAvg,
2012-07-08, 07:23:04,VALID,1002.9,VALID,0,VALID,94.3692,VALID,117.862,VALID,24.7335,VALID,85,VALID,0,
2012-07-08, 07:24:04,VALID,1002.93,VALID,0,VALID,94.3235,VALID,129.518,VALID,24.7316,VALID,85,VALID,0,
2012-07-08, 07:25:04,VALID,1002.99,VALID,0,VALID,94.2472,VALID,146.309,VALID,24.7724,VALID,85,VALID,0,
2012-07-08, 07:26:04,VALID,1003.01,VALID,0,VALID,94.1633,VALID,166.278,VALID,24.7724,VALID,85,VALID,0.172266,
2012-07-08, 07:27:04,VALID,1003.02,VALID,0,VALID,94.0565,VALID,187.715,VALID,24.7919,VALID,85,VALID,0.216797,
2012-07-08, 07:28:04,VALID,1003.04,VALID,0,VALID,93.8047,VALID,189.345,VALID,24.8113,VALID,58,VALID,0.377344,
2012-07-08, 07:29:04,VALID,1003.05,VALID,0,VALID,93.8505,VALID,171.658,VALID,24.8892,VALID,318,VALID,0.0777344,
2012-07-08, 07:30:04,VALID,1003.03,VALID,0,VALID,93.347,VALID,152.422,VALID,24.8697,VALID,345,VALID,1.09297,
2012-07-08, 07:31:04,VALID,1003.02,VALID,0,VALID,93.0876,VALID,147.368,VALID,24.8679,VALID,358,VALID,0.948438,
2012-07-08, 07:32:04,VALID,1003.02,VALID,0,VALID,93.1334,VALID,148.102,VALID,24.9282,VALID,356,VALID,0.564453,
2012-07-08, 07:33:04,VALID,1003.02,VALID,0,VALID,92.8969,VALID,145.656,VALID,24.9476,VALID,7,VALID,1.07578,
2012-07-08, 07:34:04,VALID,1003.04,VALID,0,VALID,92.4468,VALID,145.982,VALID,24.969,VALID,352,VALID,1.22344,
2012-07-08, 07:35:04,VALID,1002.99,VALID,0,VALID,91.8899,VALID,150.139,VALID,24.9476,VALID,333,VALID,1.6957,
2012-07-08, 07:36:04,VALID,1002.99,VALID,0,VALID,91.5237,VALID,155.111,VALID,24.9087,VALID,316,VALID,0.991016,
2012-07-08, 07:37:04,VALID,1003,VALID,0,VALID,92.0653,VALID,159.676,VALID,24.9671,VALID,348,VALID,0.788281,
2012-07-08, 07:38:04,VALID,1003.02,VALID,0,VALID,91.3177,VALID,166.441,VALID,24.9282,VALID,352,VALID,1.57852,
2012-07-08, 07:39:04,VALID,1003.04,VALID,0,VALID,90.921,VALID,169.539,VALID,24.9282,VALID,339,VALID,1.45039,
2012-07-08, 07:40:04,VALID,1003.05,VALID,0,VALID,90.8752,VALID,170.517,VALID,24.9282,VALID,347,VALID,1.67383,
2012-07-08, 07:41:04,VALID,1003.03,VALID,0,VALID,90.7226,VALID,170.924,VALID,24.93,VALID,354,VALID,1.31914,
2012-07-08, 07:42:04,VALID,1002.97,VALID,0,VALID,90.4251,VALID,171.25,VALID,24.9476,VALID,352,VALID,1.54219,
2012-07-08, 07:43:04,VALID,1003.01,VALID,0,VALID,90.4633,VALID,172.554,VALID,24.9476,VALID,11,VALID,0.933984,
2012-07-08, 07:44:04,VALID,1002.99,VALID,0,VALID,89.8758,VALID,175.57,VALID,25.0079,VALID,342,VALID,1.60312,
2012-07-08, 07:45:04,VALID,1003.01,VALID,0,VALID,90.1352,VALID,178.668,VALID,25.0469,VALID,348,VALID,1.40469,
2012-07-08, 07:46:04,VALID,1003.01,VALID,0,VALID,89.2121,VALID,180.053,VALID,25.0839,VALID,345,VALID,1.6957,
2012-07-08, 07:47:04,VALID,1002.97,VALID,0,VALID,89.5783,VALID,181.52,VALID,25.1442,VALID,341,VALID,1.01875,
2012-07-08, 07:48:04,VALID,1002.95,VALID,0,VALID,89.296,VALID,183.151,VALID,25.2027,VALID,354,VALID,1.40781,
2012-07-08, 07:49:04,VALID,1002.96,VALID,0,VALID,89.38,VALID,185.514,VALID,25.2397,VALID,356,VALID,0.917969,
2012-07-08, 07:50:04,VALID,1002.95,VALID,0,VALID,88.5026,VALID,189.264,VALID,25.3176,VALID,348,VALID,1.15391,
2012-07-08, 07:51:05,VALID,1003,VALID,0,VALID,88.7925,VALID,195.132,VALID,25.376,VALID,340,VALID,0.940234,
2012-07-08, 07:52:05,VALID,1003.01,VALID,0,VALID,88.1288,VALID,203.202,VALID,25.3955,VALID,352,VALID,1.32656,
2012-07-08, 07:53:05,VALID,1003.04,VALID,0,VALID,88.1975,VALID,211.108,VALID,25.4558,VALID,355,VALID,0.664844,
2012-07-08, 07:54:05,VALID,1003,VALID,0,VALID,88.8536,VALID,218.77,VALID,25.5727,VALID,358,VALID,0.324609,
2012-07-08, 07:55:05,VALID,1002.99,VALID,0,VALID,88.3653,VALID,225.291,VALID,25.6895,VALID,342,VALID,0.885547,
2012-07-08, 07:56:05,VALID,1003.02,VALID,0,VALID,87.2286,VALID,235.398,VALID,25.748,VALID,350,VALID,0.762891,
2012-07-08, 07:57:05,VALID,1003.04,VALID,0,VALID,87.8542,VALID,243.793,VALID,25.8259,VALID,352,VALID,0.502734,
2012-07-08, 07:58:05,VALID,1003.03,VALID,0,VALID,85.7715,VALID,246.646,VALID,25.8843,VALID,1,VALID,0.870313,
2012-07-08, 07:59:05,VALID,1003.03,VALID,0,VALID,86.0843,VALID,248.358,VALID,25.9232,VALID,3,VALID,0.621484,
2012-07-08, 08:00:05,VALID,1003.06,VALID,0,VALID,85.2146,VALID,254.96,VALID,25.9817,VALID,349,VALID,1.19023,
2012-07-08, 08:01:05,VALID,1003.07,VALID,0,VALID,86.4886,VALID,242.978,VALID,26.0596,VALID,345,VALID,0.816016,
2012-07-08, 08:02:05,VALID,1003.08,VALID,0,VALID,87.1066,VALID,252.107,VALID,26.1765,VALID,353,VALID,0.695703,
2012-07-08, 08:03:05,VALID,1003.1,VALID,0,VALID,85.6876,VALID,269.061,VALID,26.2154,VALID,348,VALID,0.447266,
2012-07-08, 08:04:05,VALID,1003.1,VALID,0,VALID,85.2833,VALID,271.017,VALID,26.3128,VALID,13,VALID,0.621484,
2012-07-08, 08:05:05,VALID,1003.1,VALID,0,VALID,84.3678,VALID,275.256,VALID,26.3907,VALID,16,VALID,0.408594,
2012-07-08, 08:06:05,VALID,1003.11,VALID,0,VALID,83.6354,VALID,290.579,VALID,26.4687,VALID,350,VALID,0.703906,
2012-07-08, 08:07:05,VALID,1003.11,VALID,0,VALID,83.9558,VALID,312.913,VALID,26.5661,VALID,357,VALID,0.732422,
2012-07-08, 08:08:05,VALID,1003.1,VALID,0,VALID,83.2769,VALID,332.719,VALID,26.603,VALID,343,VALID,0.704687,
2012-07-08, 08:09:05,VALID,1003.12,VALID,0,VALID,83.6736,VALID,327.584,VALID,26.683,VALID,353,VALID,1.24727,
2012-07-08, 08:10:05,VALID,1003.09,VALID,0,VALID,83.2006,VALID,316.092,VALID,26.7024,VALID,357,VALID,0.951172,
2012-07-08, 08:11:05,VALID,1003.13,VALID,0,VALID,84.4517,VALID,303.213,VALID,26.7394,VALID,7,VALID,0.761328,
2012-07-08, 08:12:05,VALID,1003.14,VALID,0,VALID,82.4453,VALID,309.408,VALID,26.7394,VALID,353,VALID,0.502344,
2012-07-08, 08:13:05,VALID,1003.14,VALID,0,VALID,84.4975,VALID,309.489,VALID,26.8388,VALID,344,VALID,0.546875,
2012-07-08, 08:14:05,VALID,1003.15,VALID,0,VALID,83.5668,VALID,307.289,VALID,26.9167,VALID,346,VALID,0.201562,
2012-07-08, 08:15:05,VALID,1003.15,VALID,0,VALID,84.0169,VALID,303.05,VALID,26.9926,VALID,357,VALID,0.61875,
2012-07-08, 08:16:05,VALID,1003.14,VALID,0,VALID,81.7816,VALID,307.615,VALID,27.0511,VALID,19,VALID,0.826953,
2012-07-08, 08:17:05,VALID,1003.12,VALID,0,VALID,82.7657,VALID,324.161,VALID,27.129,VALID,353,VALID,0.894922,
2012-07-08, 08:18:05,VALID,1003.17,VALID,0,VALID,81.3239,VALID,339.892,VALID,27.168,VALID,349,VALID,0.794141,
2012-07-08, 08:19:05,VALID,1003.22,VALID,0,VALID,81.8121,VALID,356.112,VALID,27.248,VALID,345,VALID,0.333984,
2012-07-08, 08:20:05,VALID,1003.24,VALID,0,VALID,81.0721,VALID,376.082,VALID,27.2869,VALID,350,VALID,1.11797,
2012-07-08, 08:21:05,VALID,1003.2,VALID,0,VALID,81.034,VALID,393.444,VALID,27.2869,VALID,345,VALID,0.610937,
2012-07-08, 08:22:05,VALID,1003.17,VALID,0,VALID,83.4828,VALID,404.855,VALID,27.4428,VALID,345,VALID,0.0515625,
2012-07-08, 08:23:05,VALID,1003.17,VALID,0,VALID,80.294,VALID,413.495,VALID,27.5792,VALID,315,VALID,0.547266,
2012-07-08, 08:24:05,VALID,1003.22,VALID,0,VALID,80.4084,VALID,417.733,VALID,27.5987,VALID,305,VALID,0.266016,
2012-07-08, 08:25:05,VALID,1003.27,VALID,0,VALID,81.7969,VALID,417.815,VALID,27.6572,VALID,305,VALID,0.0242187,
2012-07-08, 08:26:05,VALID,1003.21,VALID,0,VALID,80.9729,VALID,424.906,VALID,27.7936,VALID,305,VALID,0,
2012-07-08, 08:27:05,VALID,1003.19,VALID,0,VALID,80.0727,VALID,427.27,VALID,27.9711,VALID,305,VALID,0.00117188,
2012-07-08, 08:28:05,VALID,1003.19,VALID,0,VALID,80.294,VALID,428.818,VALID,28.1054,VALID,311,VALID,0.326172,
2012-07-08, 08:29:05,VALID,1003.19,VALID,0,VALID,78.3105,VALID,432.405,VALID,28.2809,VALID,311,VALID,0.34375,
2012-07-08, 08:30:05,VALID,1003.19,VALID,0,VALID,76.4643,VALID,437.784,VALID,28.244,VALID,130,VALID,0.555469,
2012-07-08, 08:31:05,VALID,1003.16,VALID,0,VALID,76.4566,VALID,447.81,VALID,28.205,VALID,130,VALID,0.183984,
2012-07-08, 08:32:05,VALID,1003.2,VALID,0,VALID,77.6544,VALID,439.252,VALID,28.3783,VALID,130,VALID,0.160547,
2012-07-08, 08:33:05,VALID,1003.23,VALID,0,VALID,76.6016,VALID,431.264,VALID,28.4953,VALID,85,VALID,1.41836,
2012-07-08, 08:34:05,VALID,1003.23,VALID,0,VALID,77.4408,VALID,404.04,VALID,28.3198,VALID,122,VALID,1.29766,
2012-07-08, 08:35:05,VALID,1003.24,VALID,0,VALID,75.0682,VALID,419.037,VALID,28.1444,VALID,119,VALID,0.779688,
2012-07-08, 08:36:05,VALID,1003.23,VALID,0,VALID,76.3041,VALID,400.861,VALID,28.2224,VALID,118,VALID,0.133984,
2012-07-08, 08:37:05,VALID,1003.24,VALID,0,VALID,75.9379,VALID,389.124,VALID,28.2224,VALID,130,VALID,0.491797,
2012-07-08, 08:38:05,VALID,1003.28,VALID,0,VALID,77.2958,VALID,394.096,VALID,28.2614,VALID,130,VALID,0.557031,
2012-07-08, 08:39:05,VALID,1003.26,VALID,0,VALID,75.8692,VALID,423.357,VALID,28.2224,VALID,147,VALID,0.974609,
2012-07-08, 08:40:05,VALID,1003.29,VALID,0,VALID,76.2507,VALID,394.829,VALID,28.0665,VALID,138,VALID,1.54883,
2012-07-08, 08:41:05,VALID,1003.34,VALID,0,VALID,77.3568,VALID,262.459,VALID,28.0101,VALID,114,VALID,0.898438,
2012-07-08, 08:42:05,VALID,1003.35,VALID,0,VALID,79.0199,VALID,244.201,VALID,27.8911,VALID,120,VALID,1.03789,
2012-07-08, 08:43:05,VALID,1003.36,VALID,0,VALID,77.723,VALID,244.934,VALID,27.8521,VALID,151,VALID,0.879687,
2012-07-08, 08:44:05,VALID,1003.33,VALID,0,VALID,78.8216,VALID,245.505,VALID,27.8152,VALID,153,VALID,1.52852,
2012-07-08, 08:45:05,VALID,1003.37,VALID,0,VALID,80.355,VALID,306.31,VALID,27.7957,VALID,82,VALID,0.926953,
2012-07-08, 08:46:05,VALID,1003.38,VALID,0,VALID,79.5769,VALID,315.521,VALID,27.7741,VALID,90,VALID,1.28867,
2012-07-08, 08:47:05,VALID,1003.38,VALID,0,VALID,78.6766,VALID,346.25,VALID,27.6767,VALID,110,VALID,1.55352,
2012-07-08, 08:48:05,VALID,1003.35,VALID,0,VALID,79.5082,VALID,339.403,VALID,27.6593,VALID,115,VALID,0.762891,
2012-07-08, 08:49:05,VALID,1003.38,VALID,0,VALID,79.6303,VALID,328.236,VALID,27.6572,VALID,107,VALID,0.853516,
2012-07-08, 08:50:05,VALID,1003.39,VALID,0,VALID,80.4465,VALID,285.444,VALID,27.7372,VALID,89,VALID,0.887109,
2012-07-08, 08:51:05,VALID,1003.39,VALID,0,VALID,81.1942,VALID,259.035,VALID,27.7936,VALID,118,VALID,0.941797,
2012-07-08, 08:52:05,VALID,1003.42,VALID,0,VALID,80.1948,VALID,272.484,VALID,27.8542,VALID,116,VALID,0.146875,
2012-07-08, 08:53:05,VALID,1003.42,VALID,0,VALID,79.5082,VALID,351.059,VALID,27.9516,VALID,110,VALID,0.727734,
2012-07-08, 08:54:05,VALID,1003.43,VALID,0,VALID,79.0352,VALID,393.933,VALID,27.9711,VALID,126,VALID,0.936719,
2012-07-08, 08:55:05,VALID,1003.41,VALID,0,VALID,80.2177,VALID,446.995,VALID,27.9516,VALID,103,VALID,1.33008,
2012-07-08, 08:56:05,VALID,1003.39,VALID,0,VALID,80.0422,VALID,470.551,VALID,28.0101,VALID,105,VALID,0.303906,
2012-07-08, 08:57:05,VALID,1003.4,VALID,0,VALID,79.5311,VALID,405.67,VALID,28.2245,VALID,132,VALID,0.588672,
2012-07-08, 08:58:05,VALID,1003.4,VALID,0,VALID,79.3175,VALID,418.141,VALID,28.2635,VALID,120,VALID,1.20586,
2012-07-08, 08:59:05,VALID,1003.39,VALID,0,VALID,77.9061,VALID,422.298,VALID,28.361,VALID,12,VALID,0.853516,
2012-07-08, 09:00:05,VALID,1003.36,VALID,0,VALID,79.0276,VALID,397.927,VALID,28.5364,VALID,67,VALID,0.583984,
2012-07-08, 09:01:05,VALID,1003.35,VALID,0,VALID,76.2354,VALID,346.413,VALID,28.5169,VALID,129,VALID,1.1543,
2012-07-08, 09:02:05,VALID,1003.37,VALID,0,VALID,78.2799,VALID,386.841,VALID,28.4584,VALID,93,VALID,0.721484,
2012-07-08, 09:03:05,VALID,1003.36,VALID,0,VALID,77.0898,VALID,346.087,VALID,28.4996,VALID,32,VALID,0.858203,
2012-07-08, 09:04:05,VALID,1003.34,VALID,0,VALID,77.6391,VALID,392.547,VALID,28.4779,VALID,101,VALID,1.32187,
2012-07-08, 09:05:05,VALID,1003.34,VALID,0,VALID,77.6849,VALID,365.404,VALID,28.4584,VALID,84,VALID,0.932031,
2012-07-08, 09:06:05,VALID,1003.3,VALID,0,VALID,77.1661,VALID,367.768,VALID,28.3805,VALID,90,VALID,0.733984,
2012-07-08, 09:07:05,VALID,1003.37,VALID,0,VALID,78.9284,VALID,463.46,VALID,28.4779,VALID,73,VALID,0.738281,
2012-07-08, 09:08:05,VALID,1003.36,VALID,0,VALID,77.4179,VALID,453.271,VALID,28.5949,VALID,86,VALID,0.636719,
2012-07-08, 09:09:05,VALID,1003.39,VALID,0,VALID,77.8756,VALID,483.837,VALID,28.7704,VALID,36,VALID,0.503906,
2012-07-08, 09:10:05,VALID,1003.42,VALID,0,VALID,75.4878,VALID,491.988,VALID,28.8873,VALID,70,VALID,0.598828,
2012-07-08, 09:11:05,VALID,1003.39,VALID,0,VALID,75.0911,VALID,602.106,VALID,28.8656,VALID,123,VALID,0.667188,
2012-07-08, 09:12:05,VALID,1003.37,VALID,0,VALID,76.8762,VALID,618.408,VALID,28.9653,VALID,140,VALID,0.483203,
2012-07-08, 09:13:05,VALID,1003.38,VALID,0,VALID,76.182,VALID,532.905,VALID,29.1018,VALID,137,VALID,0.481641,
2012-07-08, 09:14:05,VALID,1003.37,VALID,0,VALID,76.2888,VALID,654.191,VALID,29.2968,VALID,47,VALID,0.526953,
2012-07-08, 09:15:05,VALID,1003.39,VALID,0,VALID,75.4344,VALID,647.833,VALID,29.5308,VALID,47,VALID,0.651953,
2012-07-08, 09:16:05,VALID,1003.4,VALID,0,VALID,73.1533,VALID,665.439,VALID,29.6478,VALID,94,VALID,0.950391,
2012-07-08, 09:17:05,VALID,1003.4,VALID,0,VALID,73.8323,VALID,550.267,VALID,29.8038,VALID,52,VALID,0.833594,
2012-07-08, 09:18:05,VALID,1003.42,VALID,0,VALID,70.3917,VALID,677.91,VALID,29.9988,VALID,48,VALID,1.23711,
2012-07-08, 09:19:05,VALID,1003.38,VALID,0,VALID,70.6892,VALID,705.623,VALID,30.016,VALID,22,VALID,0.742188,
2012-07-08, 09:20:05,VALID,1003.37,VALID,0,VALID,71.6276,VALID,570.318,VALID,29.86,VALID,99,VALID,0.849609,
2012-07-08, 09:21:05,VALID,1003.35,VALID,0,VALID,71.063,VALID,268.409,VALID,29.8818,VALID,131,VALID,1.38516,
2012-07-08, 09:22:05,VALID,1003.37,VALID,0,VALID,74.3206,VALID,610.42,VALID,29.4918,VALID,131,VALID,2.43945,
2012-07-08, 09:23:05,VALID,1003.37,VALID,0,VALID,77.0059,VALID,372.577,VALID,29.2556,VALID,131,VALID,1.31328,
2012-07-08, 09:24:05,VALID,1003.39,VALID,0,VALID,75.5869,VALID,583.196,VALID,29.1213,VALID,139,VALID,1.86602,
2012-07-08, 09:25:05,VALID,1003.32,VALID,0,VALID,76.121,VALID,252.189,VALID,28.9848,VALID,133,VALID,0.8875,
2012-07-08, 09:26:05,VALID,1003.35,VALID,0,VALID,75.8234,VALID,241.592,VALID,28.8093,VALID,129,VALID,2.12148,
2012-07-08, 09:27:05,VALID,1003.38,VALID,0,VALID,77.5628,VALID,290.009,VALID,28.6339,VALID,108,VALID,1.72656,
2012-07-08, 09:28:05,VALID,1003.39,VALID,0,VALID,76.6092,VALID,364.589,VALID,28.6339,VALID,128,VALID,1.33711,
2012-07-08, 09:29:05,VALID,1003.32,VALID,0,VALID,79.4243,VALID,845.981,VALID,28.7314,VALID,103,VALID,1.05,
2012-07-08, 09:30:05,VALID,1003.29,VALID,0,VALID,75.5412,VALID,836.118,VALID,28.9068,VALID,131,VALID,1.07578,
2012-07-08, 09:31:05,VALID,1003.26,VALID,0,VALID,79.7905,VALID,509.268,VALID,29.1408,VALID,125,VALID,0.797266,
2012-07-08, 09:32:05,VALID,1003.26,VALID,0,VALID,74.496,VALID,418.467,VALID,29.4115,VALID,115,VALID,0.744922,
2012-07-08, 09:33:05,VALID,1003.25,VALID,0,VALID,72.8787,VALID,428.655,VALID,29.5308,VALID,121,VALID,0.828906,
2012-07-08, 09:34:05,VALID,1003.25,VALID,0,VALID,76.3651,VALID,463.297,VALID,29.5308,VALID,126,VALID,1.65117,
2012-07-08, 09:35:05,VALID,1003.29,VALID,0,VALID,74.8088,VALID,311.038,VALID,29.5113,VALID,111,VALID,1.53906,
2012-07-08, 09:36:05,VALID,1003.27,VALID,0,VALID,74.2137,VALID,247.217,VALID,29.5113,VALID,129,VALID,1.76367,
2012-07-08, 09:37:05,VALID,1003.26,VALID,0,VALID,75.0682,VALID,236.05,VALID,29.338,VALID,116,VALID,1.73008,
2012-07-08, 09:38:05,VALID,1003.27,VALID,0,VALID,75.3199,VALID,221.378,VALID,29.1408,VALID,111,VALID,2.25312,
2012-07-08, 09:39:05,VALID,1003.26,VALID,0,VALID,74.7783,VALID,199.615,VALID,28.9285,VALID,96,VALID,2.12617,
2012-07-08, 09:40:05,VALID,1003.24,VALID,0,VALID,75.9379,VALID,178.994,VALID,28.7704,VALID,136,VALID,2.03516,
2012-07-08, 09:41:05,VALID,1003.22,VALID,0,VALID,77.4789,VALID,183.477,VALID,28.7119,VALID,175,VALID,1.2793,
2012-07-08, 09:42:05,VALID,1003.22,VALID,0,VALID,79.1954,VALID,204.75,VALID,28.6144,VALID,134,VALID,1.86211,
2012-07-08, 09:43:05,VALID,1003.19,VALID,0,VALID,78.3791,VALID,224.394,VALID,28.4996,VALID,181,VALID,1.84063,
2012-07-08, 09:44:05,VALID,1003.17,VALID,0,VALID,79.2564,VALID,223.416,VALID,28.361,VALID,170,VALID,1.71602,
2012-07-08, 09:45:05,VALID,1003.12,VALID,0,VALID,78.9665,VALID,216.895,VALID,28.244,VALID,174,VALID,1.76445,
2012-07-08, 09:46:05,VALID,1003.14,VALID,0,VALID,81.3315,VALID,232.463,VALID,28.166,VALID,161,VALID,1.64219,
2012-07-08, 09:47:05,VALID,1003.14,VALID,0,VALID,78.6309,VALID,225.535,VALID,28.205,VALID,145,VALID,1.83125,
2012-07-08, 09:48:05,VALID,1003.15,VALID,0,VALID,78.9665,VALID,219.259,VALID,28.1466,VALID,133,VALID,2.54023,
2012-07-08, 09:49:05,VALID,1003.16,VALID,0,VALID,78.0434,VALID,218.933,VALID,28.0881,VALID,137,VALID,2.59414,
2012-07-08, 09:50:05,VALID,1003.17,VALID,0,VALID,78.2113,VALID,213.146,VALID,28.0491,VALID,173,VALID,1.78555,
2012-07-08, 09:51:05,VALID,1003.18,VALID,0,VALID,80.0956,VALID,200.186,VALID,27.9906,VALID,180,VALID,2.09766,
2012-07-08, 09:52:05,VALID,1003.15,VALID,0,VALID,79.1267,VALID,219.096,VALID,28.0101,VALID,134,VALID,1.59453,
2012-07-08, 09:53:05,VALID,1003.07,VALID,0,VALID,78.9818,VALID,465.416,VALID,27.9906,VALID,141,VALID,2.39766,
2012-07-08, 09:54:05,VALID,1003.07,VALID,0,VALID,80.4618,VALID,175.163,VALID,28.0491,VALID,128,VALID,1.69375,
2012-07-08, 09:55:05,VALID,1003.05,VALID,0,VALID,78.2189,VALID,746.866,VALID,28.0665,VALID,134,VALID,2.18633,
2012-07-08, 09:56:05,VALID,1003.03,VALID,0,VALID,77.9138,VALID,722.577,VALID,28.244,VALID,116,VALID,2.11914,
2012-07-08, 09:57:05,VALID,1003.02,VALID,0,VALID,76.8152,VALID,165.708,VALID,28.4194,VALID,117,VALID,1.75234,
2012-07-08, 09:58:05,VALID,1002.97,VALID,0,VALID,77.7917,VALID,149.813,VALID,28.5754,VALID,114,VALID,2.27813,
2012-07-08, 09:59:05,VALID,1002.97,VALID,0,VALID,77.2424,VALID,730.809,VALID,28.7119,VALID,117,VALID,1.86328,
2012-07-08, 10:00:05,VALID,1002.95,VALID,0,VALID,77.7383,VALID,753.142,VALID,28.9826,VALID,107,VALID,0.972266,
2012-07-08, 10:01:05,VALID,1002.95,VALID,0,VALID,73.4051,VALID,405.996,VALID,29.1018,VALID,102,VALID,2.24141,
2012-07-08, 10:02:05,VALID,1002.94,VALID,0,VALID,72.3676,VALID,291.15,VALID,29.0411,VALID,118,VALID,2.45781,
2012-07-08, 10:03:05,VALID,1002.94,VALID,0,VALID,74.8241,VALID,193.828,VALID,28.9653,VALID,104,VALID,2.46523,
2012-07-08, 10:04:05,VALID,1002.91,VALID,0,VALID,73.3975,VALID,240.207,VALID,28.8288,VALID,137,VALID,2.40039,
2012-07-08, 10:05:05,VALID,1002.91,VALID,0,VALID,73.1228,VALID,300.605,VALID,28.7292,VALID,116,VALID,2.54063,
2012-07-08, 10:06:05,VALID,1002.89,VALID,0,VALID,75.6785,VALID,258.22,VALID,28.7682,VALID,120,VALID,2.08242,
2012-07-08, 10:07:05,VALID,1002.85,VALID,0,VALID,74.641,VALID,221.052,VALID,28.8288,VALID,110,VALID,1.86602,
2012-07-08, 10:08:05,VALID,1002.87,VALID,0,VALID,75.8158,VALID,226.595,VALID,28.7509,VALID,112,VALID,1.19023,
2012-07-08, 10:09:05,VALID,1002.83,VALID,0,VALID,75.7853,VALID,293.758,VALID,28.7314,VALID,100,VALID,1.97812,
2012-07-08, 10:10:05,VALID,1002.78,VALID,0,VALID,75.8158,VALID,684.675,VALID,28.7898,VALID,120,VALID,1.56875,
2012-07-08, 10:11:05,VALID,1002.76,VALID,0,VALID,73.6416,VALID,723.555,VALID,28.7898,VALID,137,VALID,1.88555,
2012-07-08, 10:12:05,VALID,1002.7,VALID,0,VALID,73.7789,VALID,751.023,VALID,28.8678,VALID,141,VALID,2.08164,
2012-07-08, 10:13:05,VALID,1002.69,VALID,0,VALID,75.7624,VALID,595.423,VALID,29.0043,VALID,111,VALID,0.840625,
2012-07-08, 10:14:05,VALID,1002.7,VALID,0,VALID,74.6562,VALID,510.409,VALID,29.2383,VALID,129,VALID,1.40586,
2012-07-08, 10:15:05,VALID,1002.69,VALID,0,VALID,74.4502,VALID,670.818,VALID,29.2166,VALID,117,VALID,2.01484,
2012-07-08, 10:16:05,VALID,1002.66,VALID,0,VALID,72.7948,VALID,625.336,VALID,29.2578,VALID,129,VALID,2.05273,
2012-07-08, 10:17:05,VALID,1002.67,VALID,0,VALID,75.3123,VALID,765.45,VALID,29.3748,VALID,100,VALID,0.773047,
2012-07-08, 10:18:05,VALID,1002.68,VALID,0,VALID,72.4286,VALID,386.515,VALID,29.4918,VALID,158,VALID,1.51484,
2012-07-08, 10:19:05,VALID,1002.65,VALID,0,VALID,72.0395,VALID,621.668,VALID,29.4528,VALID,127,VALID,1.82617,
2012-07-08, 10:20:05,VALID,1002.64,VALID,0,VALID,77.2424,VALID,836.363,VALID,29.5285,VALID,125,VALID,1.27852,
2012-07-08, 10:21:05,VALID,1002.6,VALID,0,VALID,76.5253,VALID,435.828,VALID,29.5113,VALID,139,VALID,2.65391,
2012-07-08, 10:22:05,VALID,1002.63,VALID,0,VALID,77.6925,VALID,776.128,VALID,29.5503,VALID,165,VALID,1.73086,
2012-07-08, 10:23:05,VALID,1002.62,VALID,0,VALID,75.0911,VALID,272.321,VALID,29.3553,VALID,151,VALID,4.02773,
2012-07-08, 10:24:05,VALID,1002.6,VALID,0,VALID,74.4197,VALID,190.975,VALID,29.2188,VALID,126,VALID,2.4168,
2012-07-08, 10:25:05,VALID,1002.6,VALID,0,VALID,75.7395,VALID,804.33,VALID,29.0628,VALID,110,VALID,2.65469,
2012-07-08, 10:26:05,VALID,1002.56,VALID,0,VALID,75.4267,VALID,348.532,VALID,29.1018,VALID,131,VALID,2.40469,
2012-07-08, 10:27:05,VALID,1002.56,VALID,0,VALID,76.1362,VALID,831.798,VALID,29.1993,VALID,136,VALID,2.75977,
2012-07-08, 10:28:05,VALID,1002.54,VALID,0,VALID,74.0307,VALID,791.533,VALID,29.4333,VALID,91,VALID,2.26055,
2012-07-08, 10:29:05,VALID,1002.54,VALID,0,VALID,74.1375,VALID,765.369,VALID,29.5135,VALID,110,VALID,1.85508,
2012-07-08, 10:30:05,VALID,1002.48,VALID,0,VALID,73.9315,VALID,779.47,VALID,29.65,VALID,153,VALID,2.62695,
2012-07-08, 10:31:05,VALID,1002.54,VALID,0,VALID,72.9779,VALID,533.068,VALID,29.5503,VALID,122,VALID,2.93281,
2012-07-08, 10:32:04,VALID,1002.45,VALID,0,VALID,73.6111,VALID,568.117,VALID,29.4138,VALID,123,VALID,2.70078,
2012-07-08, 10:33:04,VALID,1002.51,VALID,0,VALID,74.5265,VALID,422.053,VALID,29.3163,VALID,103,VALID,2.67812,
2012-07-08, 10:34:04,VALID,1002.53,VALID,0,VALID,73.077,VALID,347.391,VALID,29.2188,VALID,129,VALID,2.45469,
2012-07-08, 10:35:04,VALID,1002.54,VALID,0,VALID,75.03,VALID,877.769,VALID,29.1603,VALID,112,VALID,2.75938,
2012-07-08, 10:36:04,VALID,1002.53,VALID,0,VALID,75.7472,VALID,532.253,VALID,29.2188,VALID,137,VALID,2.06445,
2012-07-08, 10:37:04,VALID,1002.5,VALID,0,VALID,75.6404,VALID,866.195,VALID,29.2383,VALID,101,VALID,2.33516,
2012-07-08, 10:38:04,VALID,1002.48,VALID,0,VALID,74.6105,VALID,833.021,VALID,29.377,VALID,122,VALID,2.58086,
2012-07-08, 10:39:04,VALID,1002.42,VALID,0,VALID,74.1069,VALID,883.231,VALID,29.314,VALID,97,VALID,2.71211,
2012-07-08, 10:40:04,VALID,1002.44,VALID,0,VALID,74.5799,VALID,273.707,VALID,29.4333,VALID,145,VALID,2.35234,
2012-07-08, 10:41:04,VALID,1002.44,VALID,0,VALID,74.969,VALID,246.32,VALID,29.3358,VALID,137,VALID,2.86367,
2012-07-08, 10:42:04,VALID,1002.42,VALID,0,VALID,76.7313,VALID,202.142,VALID,29.2578,VALID,148,VALID,2.14883,
2012-07-08, 10:43:04,VALID,1002.46,VALID,0,VALID,77.0517,VALID,215.102,VALID,29.1213,VALID,159,VALID,2.38672,
2012-07-08, 10:44:04,VALID,1002.44,VALID,0,VALID,76.3193,VALID,886.898,VALID,29.1993,VALID,137,VALID,2.04375,
2012-07-08, 10:45:04,VALID,1002.39,VALID,0,VALID,75.9302,VALID,848.508,VALID,29.3553,VALID,125,VALID,2.01523,
2012-07-08, 10:46:04,VALID,1002.4,VALID,0,VALID,75.0834,VALID,840.601,VALID,29.5698,VALID,101,VALID,2.01367,
2012-07-08, 10:47:04,VALID,1002.41,VALID,0,VALID,73.283,VALID,226.106,VALID,29.6305,VALID,118,VALID,3.19375,
2012-07-08, 10:48:04,VALID,1002.37,VALID,0,VALID,71.475,VALID,877.769,VALID,29.5503,VALID,118,VALID,3.91133,
2012-07-08, 10:49:04,VALID,1002.39,VALID,0,VALID,74.0078,VALID,851.605,VALID,29.6283,VALID,134,VALID,1.89961,
2012-07-08, 10:50:04,VALID,1002.37,VALID,0,VALID,74.4808,VALID,852.746,VALID,29.8255,VALID,116,VALID,1.41992,
2012-07-08, 10:51:04,VALID,1002.37,VALID,0,VALID,71.5818,VALID,904.912,VALID,30.0378,VALID,132,VALID,2.39063,
2012-07-08, 10:52:04,VALID,1002.36,VALID,0,VALID,71.2614,VALID,372.74,VALID,30.1353,VALID,85,VALID,2.27891,
2012-07-08, 10:53:04,VALID,1002.3,VALID,0,VALID,69.7432,VALID,751.594,VALID,30.0768,VALID,72,VALID,1.84219,
2012-07-08, 10:54:04,VALID,1002.29,VALID,0,VALID,71.6199,VALID,293.269,VALID,29.9793,VALID,98,VALID,2.74219,
2012-07-08, 10:55:04,VALID,1002.29,VALID,0,VALID,71.8412,VALID,289.112,VALID,29.7453,VALID,151,VALID,2.61445,
2012-07-08, 10:56:04,VALID,1002.3,VALID,0,VALID,73.6034,VALID,250.64,VALID,29.4333,VALID,127,VALID,3.26875,
2012-07-08, 10:57:04,VALID,1002.26,VALID,0,VALID,76.1362,VALID,652.886,VALID,29.338,VALID,143,VALID,1.62461,